Regional Weather Roundup
Issued by NWS Cleveland, OH

Home | Current Version | Previous Version | Text Only | Print | Product List | Glossary Off
Versions: 1 2 3 4 5 6 7 8 9 10 11 12 13 14 15 16 17 18 19 20 21 22 23 24 25 26 27 28 29 30 31 32 33 34 35 36 37 38 39 40 41 42 43 44 45 46 47 48 49 50

000
ASUS41 KCLE 242112
RWRCLE
OHIO REGIONAL WEATHER ROUNDUP
NATIONAL WEATHER SERVICE WILMINGTON, OH
500 PM EDT WED AUG 24 2016

NOTE: "FAIR" INDICATES FEW OR NO CLOUDS BELOW 12,000 FEET WITH NO
SIGNIFICANT WEATHER AND/OR OBSTRUCTIONS TO VISIBILITY.

OHZ001>008-015>018-024>027-034-035-043-044-242200-
   NORTHWEST OHIO

CITY           SKY/WX    TMP DP  RH WIND       PRES   REMARKS
DEFIANCE       LGT RAIN  80  72  76 S12G22    30.00F
FINDLAY        LGT RAIN  80  70  71 S13       30.04F
TOLEDO EXPRESS LGT RAIN  82  73  74 S14G22    30.00F
TOLEDO EXEC    PTSUNNY   82  73  74 S14       30.02S
LIMA           LGT RAIN  79  73  82 S10       30.06F
$$

OHZ009>014-019>023-028>033-038-089-242200-
   NORTHEAST OHIO

CITY           SKY/WX    TMP DP  RH WIND       PRES   REMARKS
CLE-HOPKINS    PTSUNNY   86  64  47 S16G23    30.07F
CLE-LAKEFRONT  FAIR      87  64  46 S17G26    30.04F
CUY CO. ARPT   CLOUDY    88  68  51 S17       30.07F HX  91
LORAIN-ELYRIA  FAIR      83  66  56 SW13      30.06F
ASHTABULA      FAIR      84  61  45 S13       30.09F
AKRON-CANTON   PTSUNNY   85  65  51 S15       30.11F
WOOSTER        PTSUNNY   81  68  64 S12       30.10F
MANSFIELD      PTSUNNY   81  68  64 S16G23    30.11S
YOUNGSTOWN     PTSUNNY   81  61  50 S7        30.12F
$$

OHZ042-051>053-060>062-070>072-077>081-242200-
  SOUTHWEST OHIO

CITY           SKY/WX    TMP DP  RH WIND       PRES   REMARKS
CINC-COVINGTON CLOUDY    86  73  65 S9        30.10S HX  93
CINC-LUNKEN    PTSUNNY   85  74  69 S8        30.09S HX  92
HAMILTON       PTSUNNY   85  71  63 SW7       30.09S HX  90
DAYTON         CLOUDY    82  70  66 S14       30.10S
WRIGHT-PAT AFB FAIR      82  73  74 S12       30.09S
DAYTON GENERAL PTSUNNY   83  72  69 S10       30.09F
WILMINGTON     PTSUNNY   82  73  74 S12       30.12S
$$

OHZ036-037-039>041-045>050-054>059-063>069-073>076-082>088-242200-
  CENTRAL AND SOUTHEAST OHIO

CITY           SKY/WX    TMP DP  RH WIND       PRES   REMARKS
COLUMBUS       CLOUDY    81  69  67 S10       30.11R
OSU AIRPORT    PTSUNNY   82  71  69 S13       30.10S
BOLTON FIELD   PTSUNNY   81  73  78 S10       30.11F
RICKENBACK AFB PTSUNNY   82  71  69 S9        30.11S
NEWARK         FAIR      83  69  62 S10       30.11F
MARION         FAIR      82  70  66 S15       30.09S
LANCASTER      FAIR      82  71  69 S9        30.13S
ZANESVILLE     FAIR      84  67  56 SW10G18   30.12F
NEW PHILLY     CLOUDY    84  64  50 S7        30.12F
$$



USA.gov is the U.S. government's official web portal to all federal, state and local government web resources and services.